Weather History for Spirit of St Louis, MO

Change the Weather History Date:

Wednesday, February 15, 2012

  Actual Average Record
Temperature  
Mean Temperature 40 °F -  
Max Temperature 46 °F 44 °F 73 °F (2005)
Min Temperature 34 °F 27 °F 6 °F (2007)
Degree Days  
Heating Degree Days 25    
Moisture  
Dew Point 39 °F    
Average Humidity 89    
Maximum Humidity 97    
Minimum Humidity 81    
Precipitation  
Precipitation 0.20 in - - ()
Sea Level Pressure  
Sea Level Pressure 30.00 in    
Wind  
Wind Speed 4 mph (SE)    
Max Wind Speed 12 mph    
Max Gust Speed -    
Visibility 9 miles    
Events Rain    
Averages and records for this station are not official NWS values.
T = Trace of Precipitation, MM = Missing Value Source: NWS Daily Summary

Daily Weather History Graph

Daily Weather History Graph

Search for Another Location

Airport:

Trip Planner

Search our weather history database for the weather conditions in past years. The results will help you decide how hot, cold, wet, or windy it might be!

Date:

Astronomy

Feb. 15, 2012 Rise Set
Actual Time 6:54 AM CST 5:39 PM CST
Civil Twilight 6:26 AM CST 6:07 PM CST
Nautical Twilight 5:55 AM CST 6:38 PM CST
Astronomical Twilight 5:24 AM CST 7:09 PM CST
Moon 1:45 AM CST (2/15) 11:37 AM CST (2/15)
Length of Visible Light 11h 40m
Length of Day
10h 45m
Last Quarter, 38% of the Moon is Illuminated
Feb 15
Last Quarter
Feb 21
New
Feb 29
First Quarter
Mar 8
Full
Mar 14
Last Quarter

Hourly Weather History & Observations

Time (CST) Temp. Windchill Dew Point Humidity Pressure Visibility Wind Dir Wind Speed Gust Speed Precip Events Conditions
12:54 AM 34.0 °F 31.0 °F 30.9 °F 89% 30.03 in 10.0 mi North 3.5 mph - N/A   Overcast
1:54 AM 34.0 °F 28.8 °F 30.9 °F 89% 30.03 in 10.0 mi East 5.8 mph - N/A   Overcast
2:54 AM 35.1 °F 29.3 °F 32.0 °F 89% 30.03 in 10.0 mi East 6.9 mph - N/A   Overcast
3:54 AM 34.0 °F 29.8 °F 32.0 °F 92% 30.03 in 10.0 mi East 4.6 mph - N/A   Partly Cloudy
4:54 AM 34.0 °F 29.8 °F 30.9 °F 89% 30.02 in 10.0 mi ENE 4.6 mph - N/A   Scattered Clouds
5:54 AM 34.0 °F - 32.0 °F 92% 30.04 in 9.0 mi Calm Calm - N/A   Overcast
6:54 AM 34.0 °F - 32.0 °F 92% 30.04 in 8.0 mi Calm Calm - N/A   Mostly Cloudy
7:54 AM 36.0 °F - 34.0 °F 93% 30.06 in 6.0 mi Calm Calm - N/A   Overcast
8:54 AM 41.0 °F 37.1 °F 36.0 °F 82% 30.03 in 10.0 mi Variable 5.8 mph - N/A   Mostly Cloudy
9:49 AM 42.8 °F 40.1 °F 37.4 °F 81% 30.03 in 10.0 mi SSW 4.6 mph - N/A   Mostly Cloudy
9:54 AM 42.1 °F 39.2 °F 37.0 °F 82% 30.06 in 10.0 mi SSW 4.6 mph - N/A   Mostly Cloudy
10:54 AM 42.1 °F 39.2 °F 39.0 °F 89% 30.06 in 8.0 mi South 4.6 mph - 0.00 in Rain Light Rain
11:49 AM 42.8 °F - 39.2 °F 87% 30.02 in 10.0 mi Calm Calm - 0.00 in   Overcast
11:54 AM 44.1 °F - 39.9 °F 85% 30.04 in 10.0 mi Calm Calm - 0.00 in   Overcast
12:54 PM 45.0 °F 41.8 °F 41.0 °F 86% 30.01 in 10.0 mi SSE 5.8 mph - 0.00 in Rain Light Rain
1:54 PM 46.0 °F 43.9 °F 42.1 °F 86% 29.99 in 10.0 mi SE 4.6 mph - 0.00 in   Overcast
2:54 PM 46.0 °F - 43.0 °F 89% 29.98 in 4.0 mi Calm Calm - 0.02 in Rain Light Rain
3:54 PM 46.0 °F 44.8 °F 44.1 °F 93% 29.97 in 1.8 mi East 3.5 mph - 0.13 in Rain Heavy Rain
3:57 PM 46.4 °F 45.2 °F 44.6 °F 93% 29.95 in 2.0 mi ENE 3.5 mph - N/A Rain Heavy Rain
4:54 PM 46.9 °F - 44.1 °F 90% 29.91 in 4.0 mi ESE 11.5 mph - 0.05 in Rain Light Rain
5:35 PM 46.4 °F 41.1 °F 44.6 °F 93% 29.90 in 10.0 mi SSE 11.5 mph - 0.00 in   Mostly Cloudy
5:54 PM 46.0 °F 43.9 °F 43.0 °F 89% 29.95 in 10.0 mi SW 4.6 mph - 0.00 in   Scattered Clouds
6:54 PM 46.0 °F - 43.0 °F 89% 29.97 in 10.0 mi Calm Calm - N/A   Overcast
7:06 PM 46.4 °F - 42.8 °F 87% 29.95 in 10.0 mi Calm Calm - N/A   Mostly Cloudy
7:54 PM 46.0 °F 44.8 °F 43.0 °F 89% 29.97 in 10.0 mi South 3.5 mph - N/A   Overcast
8:19 PM 46.4 °F - 42.8 °F 87% 29.97 in 10.0 mi Calm Calm - N/A   Overcast
8:54 PM 44.1 °F - 42.1 °F 93% 29.98 in 6.0 mi Calm Calm - N/A   Overcast
9:54 PM 45.0 °F 43.5 °F 43.0 °F 93% 29.99 in 10.0 mi SSW 3.5 mph - N/A   Overcast
10:54 PM 45.0 °F - 44.1 °F 97% 29.98 in 10.0 mi Calm Calm - N/A   Overcast
11:20 PM 44.6 °F - 42.8 °F 93% 29.96 in 10.0 mi Calm Calm - N/A   Overcast
11:54 PM 44.1 °F - 43.0 °F 96% 29.97 in 7.0 mi Calm Calm - N/A   Overcast